This is the latest recevied weather packets stored in our database for station/object HB9MIR-13. If no packets are shown the sender has not sent any weather packets the latest 1 day(s).
| Time | Temp. | Humidity | Pressure | Rain* | Wind** | Luminosity | Snow |
|---|---|---|---|---|---|---|---|
| 1777957414 | 10° C | 95% | 1008.9 hPa | 0 mm | 0 m/s | 23 W/m² | - |
| 1777956713 | 10° C | 96% | 1008.9 hPa | 0 mm | 0 m/s | 24 W/m² | - |
| 1777956026 | 10° C | 97% | 1009.1 hPa | 0 mm | 0 m/s | 15 W/m² | - |
| 1777955339 | 10° C | 97% | 1009 hPa | 0 mm | 0 m/s | 8 W/m² | - |
| 1777954651 | 9.44° C | 97% | 1009 hPa | 0 mm | 0 m/s | 5 W/m² | - |
| 1777953950 | 9.44° C | 96% | 1008.9 hPa | 0 mm | 0 m/s | 5 W/m² | - |
| 1777953251 | 9.44° C | 97% | 1008.9 hPa | 0 mm | 0 m/s | 1 W/m² | - |
| 1777952567 | 9.44° C | 98% | 1009 hPa | 0 mm | 0 m/s | 0 W/m² | - |
| 1777951864 | 9.44° C | 97% | 1009.1 hPa | 0 mm | 0 m/s | 0 W/m² | - |
| 1777951163 | 9.44° C | 97% | 1009.1 hPa | 0 mm | 0 m/s | 0 W/m² | - |
| 1777950475 | 9.44° C | 98% | 1009.2 hPa | 0 mm | 0 m/s | 0 W/m² | - |
| 1777949761 | 9.44° C | 98% | 1009.3 hPa | 0 mm | 0 m/s | 0 W/m² | - |
| 1777949074 | 9.44° C | 97% | 1009.4 hPa | 0 mm | 0 m/s | 0 W/m² | - |
| 1777948386 | 9.44° C | 97% | 1009.5 hPa | 0 mm | 0 m/s | 0 W/m² | - |
| 1777947699 | 9.44° C | 97% | 1009.6 hPa | 0 mm | 0 m/s | 0 W/m² | - |
| 1777946984 | 10° C | 97% | 1009.6 hPa | 0 mm | 0 m/s | 0 W/m² | - |
| 1777946297 | 9.44° C | 98% | 1009.5 hPa | 0 mm | 0 m/s | 0 W/m² | - |
| 1777945597 | 9.44° C | 97% | 1009.6 hPa | 0 mm | 0 m/s | 0 W/m² | - |
| 1777944910 | 9.44° C | 97% | 1009.8 hPa | 0 mm | 0 m/s | 0 W/m² | - |
| 1777944223 | 9.44° C | 97% | 1009.9 hPa | 0 mm | 0 m/s | 0 W/m² | - |
| 1777943524 | 10° C | 95% | 1010.2 hPa | 0 mm | 0 m/s | 0 W/m² | - |
| 1777942850 | 10° C | 98% | 1010.2 hPa | 0 mm | 0 m/s | 0 W/m² | - |
| 1777942149 | 9.44° C | 97% | 1010.4 hPa | 0 mm | 0 m/s | 0 W/m² | - |
| 1777941462 | 9.44° C | 97% | 1010.5 hPa | 0 mm | 0 m/s | 0 W/m² | - |
| 1777940761 | 9.44° C | 96% | 1010.7 hPa | 0 mm | 0 m/s | 0 W/m² | - |
* Rain latest hour (hover to see other rain measurements)
** Current wind speed in m/s (hover to see current wind gust speed)